Previsão horária em Alhos Vedros

Hoje, 30 Novembro, Segunda-feira

Tempo Temperatura Precipitação Vento Pressão Humidade
00:00 +11°C° 0 mm 3 m/s 759 mmHg 92%
01:00 +11°C° 0 mm 3 m/s 759 mmHg 93%
02:00 +11°C° 0 mm 4 m/s 759 mmHg 94%
03:00 +11°C° 0 mm 4 m/s 759 mmHg 94%
04:00 +11°C° 0 mm 4 m/s 759 mmHg 94%
05:00 +11°C° 0 mm 4 m/s 759 mmHg 94%
06:00 +12°C° 0 mm 5 m/s 759 mmHg 91%
07:00 +12°C° 0 mm 5 m/s 760 mmHg 88%
08:00 +13°C° 0 mm 5 m/s 760 mmHg 85%
09:00 +14°C° 0 mm 5 m/s 760 mmHg 79%
10:00 +16°C° 0 mm 5 m/s 760 mmHg 72%
11:00 +17°C° 0 mm 6 m/s 760 mmHg 65%
12:00 +19°C° 0 mm 6 m/s 760 mmHg 64%
13:00 +19°C° 0 mm 5 m/s 760 mmHg 64%
14:00 +19°C° 0 mm 5 m/s 760 mmHg 64%
15:00 +17°C° 0 mm 5 m/s 760 mmHg 67%
16:00 +16°C° 0 mm 5 m/s 760 mmHg 71%
17:00 +15°C° 0 mm 4 m/s 761 mmHg 75%
18:00 +15°C° 0 mm 5 m/s 761 mmHg 75%
19:00 +14°C° 0 mm 5 m/s 762 mmHg 76%
20:00 +14°C° 0 mm 5 m/s 762 mmHg 76%
21:00 +14°C° 0 mm 4 m/s 762 mmHg 78%
22:00 +14°C° 0 mm 4 m/s 762 mmHg 79%
23:00 +13°C° 0 mm 3 m/s 763 mmHg 81%

Amanhã, 1 Dezembro, Terça-feira

Tempo Temperatura Precipitação Vento Pressão Humidade
00:00 +13°C° 0 mm 3 m/s 763 mmHg 81%
01:00 +13°C° 0 mm 3 m/s 762 mmHg 82%
02:00 +13°C° 0 mm 4 m/s 762 mmHg 82%
03:00 +13°C° 0 mm 4 m/s 763 mmHg 82%
04:00 +12°C° 0 mm 3 m/s 763 mmHg 81%
05:00 +12°C° 0 mm 3 m/s 763 mmHg 81%
06:00 +12°C° 0 mm 3 m/s 763 mmHg 80%
07:00 +13°C° 0 mm 3 m/s 763 mmHg 78%
08:00 +13°C° 0 mm 3 m/s 763 mmHg 77%
09:00 +16°C° 0 mm 3 m/s 764 mmHg 73%
10:00 +17°C° 0 mm 3 m/s 764 mmHg 68%
11:00 +18°C° 0 mm 2 m/s 764 mmHg 64%
12:00 +19°C° 0 mm 2 m/s 763 mmHg 63%
13:00 +19°C° 0 mm 2 m/s 763 mmHg 61%
14:00 +20°C° 0 mm 2 m/s 762 mmHg 60%
15:00 +18°C° 0 mm 2 m/s 762 mmHg 65%
16:00 +17°C° 0 mm 2 m/s 762 mmHg 70%
17:00 +16°C° 0 mm 2 m/s 762 mmHg 76%
18:00 +15°C° 0 mm 2 m/s 762 mmHg 76%
19:00 +15°C° 0 mm 2 m/s 762 mmHg 77%
20:00 +14°C° 0 mm 2 m/s 762 mmHg 77%
21:00 +14°C° 0 mm 2 m/s 762 mmHg 77%
22:00 +13°C° 0 mm 1 m/s 762 mmHg 76%
23:00 +13°C° 0 mm 1 m/s 762 mmHg 75%

Depois de amanhã, 2 Dezembro, Quarta-feira

Tempo Temperatura Precipitação Vento Pressão Humidade
00:00 +13°C° 0 mm 1 m/s 762 mmHg 75%
01:00 +12°C° 0 mm 1 m/s 761 mmHg 74%
02:00 +12°C° 0 mm 1 m/s 761 mmHg 74%
03:00 +10°C° 0 mm 2 m/s 760 mmHg 76%
04:00 +10°C° 0 mm 2 m/s 760 mmHg 77%
05:00 +10°C° 0 mm 2 m/s 760 mmHg 79%
06:00 +10°C° 0 mm 2 m/s 760 mmHg 78%
07:00 +12°C° 0 mm 2 m/s 760 mmHg 76%
08:00 +12°C° 0 mm 1 m/s 760 mmHg 75%
09:00 +14°C° 0 mm 1 m/s 760 mmHg 69%
10:00 +15°C° 0 mm 1 m/s 760 mmHg 64%
11:00 +18°C° 0 mm 1 m/s 759 mmHg 58%
12:00 +18°C° 0 mm 1 m/s 759 mmHg 56%
13:00 +19°C° 0 mm 1 m/s 758 mmHg 55%
14:00 +18°C° 0 mm 2 m/s 758 mmHg 54%
15:00 +17°C° 0 mm 2 m/s 758 mmHg 58%
16:00 +15°C° 0 mm 2 m/s 758 mmHg 62%
17:00 +14°C° 0 mm 2 m/s 758 mmHg 67%
18:00 +12°C° 0 mm 3 m/s 759 mmHg 65%
19:00 +12°C° 0 mm 3 m/s 759 mmHg 64%
20:00 +11°C° 0 mm 3 m/s 759 mmHg 62%
21:00 +11°C° 0 mm 4 m/s 759 mmHg 63%
22:00 +10°C° 0 mm 4 m/s 759 mmHg 64%
23:00 +8°C° 0 mm 4 m/s 759 mmHg 65%

3 Dezembro, Quinta-feira

Tempo Temperatura Precipitação Vento Pressão Humidade
00:00 +8°C° 0 mm 4 m/s 759 mmHg 66%
01:00 +8°C° 0 mm 3 m/s 759 mmHg 67%
02:00 +8°C° 0 mm 3 m/s 759 mmHg 68%
03:00 +8°C° 0 mm 3 m/s 759 mmHg 69%
04:00 +7°C° 0 mm 3 m/s 759 mmHg 70%
05:00 +7°C° 0 mm 3 m/s 758 mmHg 71%
06:00 +7°C° 0 mm 3 m/s 759 mmHg 69%
07:00 +8°C° 0 mm 3 m/s 759 mmHg 67%
08:00 +8°C° 0 mm 3 m/s 759 mmHg 65%
09:00 +10°C° 0 mm 3 m/s 759 mmHg 60%
10:00 +13°C° 0 mm 2 m/s 759 mmHg 54%
11:00 +14°C° 0 mm 2 m/s 759 mmHg 49%
12:00 +14°C° 0 mm 3 m/s 758 mmHg 50%
13:00 +14°C° 0 mm 4 m/s 758 mmHg 52%
14:00 +15°C° 0 mm 4 m/s 758 mmHg 54%
15:00 +13°C° 0 mm 4 m/s 758 mmHg 62%
16:00 +12°C° 0 mm 4 m/s 758 mmHg 71%
17:00 +11°C° 0 mm 4 m/s 758 mmHg 79%
18:00 +11°C° 0 mm 4 m/s 758 mmHg 80%
19:00 +10°C° 0 mm 5 m/s 758 mmHg 81%
20:00 +10°C° 0 mm 5 m/s 758 mmHg 82%
21:00 +10°C° 0 mm 5 m/s 758 mmHg 82%
22:00 +10°C° 0 mm 5 m/s 758 mmHg 82%
23:00 +10°C° 0 mm 5 m/s 758 mmHg 81%

4 Dezembro, Sexta-feira

Tempo Temperatura Precipitação Vento Pressão Humidade
00:00 +10°C° 0.1 mm 6 m/s 757 mmHg 79%
01:00 +11°C° 0.1 mm 6 m/s 757 mmHg 77%
02:00 +12°C° 0.1 mm 7 m/s 756 mmHg 75%
03:00 +12°C° 0.1 mm 7 m/s 756 mmHg 75%
04:00 +12°C° 0.1 mm 8 m/s 755 mmHg 76%
05:00 +12°C° 0.1 mm 8 m/s 755 mmHg 76%
06:00 +13°C° 0.1 mm 9 m/s 754 mmHg 75%
07:00 +13°C° 0.1 mm 9 m/s 754 mmHg 74%
08:00 +13°C° 0.1 mm 10 m/s 754 mmHg 74%
09:00 +13°C° 0.4 mm 10 m/s 754 mmHg 72%
10:00 +13°C° 0.4 mm 11 m/s 754 mmHg 71%
11:00 +13°C° 0.4 mm 11 m/s 754 mmHg 70%
12:00 +13°C° 0 mm 11 m/s 754 mmHg 66%
13:00 +12°C° 0 mm 11 m/s 754 mmHg 63%
14:00 +12°C° 0 mm 12 m/s 754 mmHg 59%
15:00 +11°C° 0.1 mm 11 m/s 754 mmHg 61%
16:00 +9°C° 0.1 mm 10 m/s 755 mmHg 64%
17:00 +10°C° 0.1 mm 9 m/s 755 mmHg 66%
18:00 +8°C° 0.1 mm 9 m/s 756 mmHg 67%
19:00 +9°C° 0.1 mm 8 m/s 756 mmHg 67%
20:00 +7°C° 0.1 mm 8 m/s 757 mmHg 68%
21:00 +7°C° 0.1 mm 8 m/s 757 mmHg 69%
22:00 +7°C° 0.1 mm 8 m/s 757 mmHg 70%
23:00 +8°C° 0.1 mm 7 m/s 757 mmHg 71%

5 Dezembro, Sábado

Tempo Temperatura Precipitação Vento Pressão Humidade
00:00 +7°C° 0.1 mm 8 m/s 757 mmHg 72%
01:00 +7°C° 0.1 mm 8 m/s 757 mmHg 72%
02:00 +7°C° 0.1 mm 8 m/s 757 mmHg 72%
03:00 +7°C° 0.1 mm 8 m/s 757 mmHg 72%
04:00 +7°C° 0.1 mm 8 m/s 757 mmHg 72%
05:00 +7°C° 0.1 mm 8 m/s 758 mmHg 71%
06:00 +7°C° 0.1 mm 8 m/s 758 mmHg 70%
07:00 +9°C° 0.1 mm 7 m/s 759 mmHg 69%
08:00 +9°C° 0.1 mm 7 m/s 759 mmHg 68%
09:00 +10°C° 0.1 mm 7 m/s 760 mmHg 65%
10:00 +11°C° 0.1 mm 8 m/s 760 mmHg 61%
11:00 +11°C° 0.1 mm 8 m/s 760 mmHg 57%
12:00 +11°C° 0.1 mm 8 m/s 760 mmHg 58%
13:00 +11°C° 0.1 mm 8 m/s 760 mmHg 59%
14:00 +11°C° 0.1 mm 8 m/s 760 mmHg 60%
15:00 +10°C° 0.1 mm 8 m/s 760 mmHg 63%
16:00 +10°C° 0.1 mm 7 m/s 761 mmHg 67%
17:00 +9°C° 0.1 mm 6 m/s 761 mmHg 71%
18:00 +9°C° 0 mm 6 m/s 761 mmHg 71%
19:00 +9°C° 0 mm 6 m/s 762 mmHg 71%
20:00 +9°C° 0 mm 5 m/s 762 mmHg 72%
21:00 +9°C° 0 mm 5 m/s 763 mmHg 73%
22:00 +8°C° 0 mm 5 m/s 763 mmHg 73%
23:00 +8°C° 0 mm 4 m/s 763 mmHg 74%
Mostrar mais